DAL561 KPDX-KLAX

Flight info

Callsign DAL561
Flight time 1h 54m
Altitude 41000
Route HRMNS6 HYJOE JAGWA BURGL IRNMN2
Aircraft MD11/H-SDE1E2E3FGHIJ2J3J4J5M1RWXY/LB1D1

Departure

Time 2026-05-04 17:34
Airport Portland International Airport (KPDX)

Arrival

Time 2026-05-04 19:28
Airport Los Angeles International Airport (KLAX)
Time Latitude Longitude Altitude Speed Heading
2026-05-04 17:19 45.59124 -122.59402 38 ft 0 kts 208°
2026-05-04 17:23 45.59157 -122.59382 38 ft 4 kts 191°
2026-05-04 17:23 45.59182 -122.59379 38 ft 4 kts 167°
2026-05-04 17:23 45.59209 -122.59401 38 ft 0 kts 119°
2026-05-04 17:26 45.59207 -122.59391 38 ft 2 kts 110°
2026-05-04 17:27 45.59209 -122.59217 39 ft 11 kts 96°
2026-05-04 17:27 45.59141 -122.59007 39 ft 13 kts 118°
2026-05-04 17:28 45.59050 -122.58773 39 ft 13 kts 120°
2026-05-04 17:29 45.58909 -122.58415 39 ft 14 kts 119°
2026-05-04 17:29 45.58766 -122.58048 39 ft 19 kts 119°
2026-05-04 17:30 45.58551 -122.57499 39 ft 22 kts 118°
2026-05-04 17:31 45.58393 -122.57095 38 ft 23 kts 120°
2026-05-04 17:31 45.58290 -122.56719 39 ft 3 kts 47°
2026-05-04 17:32 45.58336 -122.56688 38 ft 3 kts
2026-05-04 17:33 45.58410 -122.56808 38 ft 15 kts 296°
2026-05-04 17:33 45.58654 -122.57441 39 ft 130 kts 299°
2026-05-04 17:34 45.60412 -122.62004 3318 ft 169 kts 298°
2026-05-04 17:34 45.61008 -122.63499 4601 ft 173 kts 298°
2026-05-04 17:35 45.62735 -122.69090 6276 ft 258 kts 296°
2026-05-04 17:35 45.64574 -122.73997 7593 ft 280 kts 298°
2026-05-04 17:35 45.65531 -122.76455 8636 ft 286 kts 298°
2026-05-04 17:36 45.66184 -122.78142 8964 ft 297 kts 297°
2026-05-04 17:36 45.66883 -122.80868 9646 ft 290 kts 278°
2026-05-04 17:36 45.66886 -122.83752 10669 ft 294 kts 260°
2026-05-04 17:36 45.66170 -122.87525 11895 ft 301 kts 247°
2026-05-04 17:37 45.65511 -122.89368 12170 ft 319 kts 235°
2026-05-04 17:37 45.63824 -122.91614 12309 ft 350 kts 209°
2026-05-04 17:37 45.61455 -122.92649 12526 ft 375 kts 184°
2026-05-04 17:37 45.58841 -122.92287 13319 ft 383 kts 166°
2026-05-04 17:38 45.56278 -122.91130 14131 ft 390 kts 160°
2026-05-04 17:38 45.53771 -122.89592 14912 ft 395 kts 152°
2026-05-04 17:38 45.51397 -122.87598 15785 ft 394 kts 146°
2026-05-04 17:38 45.49073 -122.85454 16661 ft 400 kts 144°
2026-05-04 17:39 45.44345 -122.81100 18435 ft 410 kts 145°
2026-05-04 17:39 45.41913 -122.78932 19190 ft 414 kts 145°
2026-05-04 17:39 45.39413 -122.76740 19944 ft 419 kts 146°
2026-05-04 17:40 45.36908 -122.74569 20690 ft 424 kts 146°
2026-05-04 17:40 45.34339 -122.72356 21441 ft 429 kts 146°
2026-05-04 17:40 45.31770 -122.70150 22167 ft 434 kts 146°
2026-05-04 17:40 45.29138 -122.67894 22900 ft 438 kts 146°
2026-05-04 17:41 45.26515 -122.65647 23651 ft 442 kts 145°
2026-05-04 17:41 45.23870 -122.63385 24249 ft 447 kts 145°
2026-05-04 17:41 45.21194 -122.61097 24843 ft 451 kts 145°
2026-05-04 17:41 45.18495 -122.58792 25431 ft 455 kts 145°
2026-05-04 17:42 45.15767 -122.56465 26009 ft 460 kts 145°
2026-05-04 17:42 45.13016 -122.54121 26587 ft 464 kts 145°
2026-05-04 17:42 45.10240 -122.51758 27156 ft 468 kts 145°
2026-05-04 17:42 45.07437 -122.49375 27736 ft 472 kts 145°
2026-05-04 17:43 45.04639 -122.46999 28278 ft 477 kts 145°
2026-05-04 17:43 45.01782 -122.44575 28811 ft 481 kts 145°
2026-05-04 17:43 44.98898 -122.42133 29332 ft 486 kts 145°
2026-05-04 17:43 44.95932 -122.39785 29779 ft 493 kts 150°
2026-05-04 17:44 44.92760 -122.37882 30313 ft 500 kts 156°
2026-05-04 17:44 44.89465 -122.36267 30828 ft 503 kts 158°
2026-05-04 17:44 44.86123 -122.34776 31442 ft 503 kts 159°
2026-05-04 17:44 44.82788 -122.33318 32089 ft 501 kts 158°
2026-05-04 17:45 44.79515 -122.31866 32704 ft 498 kts 158°
2026-05-04 17:45 44.76227 -122.30375 33324 ft 496 kts 157°
2026-05-04 17:45 44.72951 -122.28864 33981 ft 493 kts 156°
2026-05-04 17:45 44.69703 -122.27352 34502 ft 492 kts 156°
2026-05-04 17:46 44.66455 -122.25832 34922 ft 492 kts 156°
2026-05-04 17:46 44.63203 -122.24309 35350 ft 492 kts 156°
2026-05-04 17:46 44.59952 -122.22789 35757 ft 493 kts 155°
2026-05-04 17:46 44.56699 -122.21272 36149 ft 493 kts 155°
2026-05-04 17:47 44.53437 -122.19752 36541 ft 495 kts 155°
2026-05-04 17:47 44.50212 -122.18254 36866 ft 496 kts 155°
2026-05-04 17:47 44.46897 -122.16716 37255 ft 496 kts 155°
2026-05-04 17:47 44.43619 -122.15198 37630 ft 497 kts 155°
2026-05-04 17:48 44.40334 -122.13678 37967 ft 497 kts 155°
2026-05-04 17:48 44.37052 -122.12162 38272 ft 498 kts 155°
2026-05-04 17:48 44.33804 -122.10663 38593 ft 498 kts 155°
2026-05-04 17:48 44.30512 -122.09145 38882 ft 498 kts 155°
2026-05-04 17:49 44.27224 -122.07631 39132 ft 497 kts 155°
2026-05-04 17:49 44.23944 -122.06124 39442 ft 496 kts 155°
2026-05-04 17:49 44.20670 -122.04621 39730 ft 495 kts 156°
2026-05-04 17:49 44.17399 -122.03121 40003 ft 494 kts 156°
2026-05-04 17:50 44.14134 -122.01632 40246 ft 494 kts 156°
2026-05-04 17:50 44.10867 -122.00147 40489 ft 493 kts 156°
2026-05-04 17:50 44.07609 -121.98664 40762 ft 492 kts 156°
2026-05-04 17:50 44.04349 -121.97179 40912 ft 494 kts 157°
2026-05-04 17:51 43.97842 -121.94213 40940 ft 494 kts 157°
2026-05-04 17:51 43.91336 -121.91256 40933 ft 491 kts 157°
2026-05-04 17:52 43.84694 -121.88946 40928 ft 495 kts 166°
2026-05-04 17:52 43.77853 -121.87516 40924 ft 498 kts 168°
2026-05-04 17:53 43.71007 -121.86186 40913 ft 496 kts 167°
2026-05-04 17:53 43.64235 -121.84793 40902 ft 495 kts 167°
2026-05-04 17:54 43.57427 -121.83351 40906 ft 494 kts 167°
2026-05-04 17:54 43.50637 -121.81909 40911 ft 493 kts 167°
2026-05-04 17:55 43.43857 -121.80476 40906 ft 493 kts 167°
2026-05-04 17:55 43.37127 -121.79059 40904 ft 493 kts 167°
2026-05-04 17:56 43.30358 -121.77637 40899 ft 491 kts 167°
2026-05-04 17:56 43.23613 -121.76224 40898 ft 490 kts 167°
2026-05-04 17:57 43.16872 -121.74813 40897 ft 490 kts 167°
2026-05-04 17:57 43.10188 -121.73418 40895 ft 489 kts 167°
2026-05-04 17:58 43.03469 -121.72023 40889 ft 488 kts 167°
2026-05-04 17:58 42.96747 -121.70633 40897 ft 488 kts 167°
2026-05-04 17:59 42.90035 -121.69245 40881 ft 487 kts 167°
2026-05-04 18:00 42.80039 -121.67178 40876 ft 487 kts 167°
2026-05-04 18:00 42.73343 -121.65797 40880 ft 486 kts 167°
2026-05-04 18:01 42.66677 -121.64426 40878 ft 484 kts 167°
2026-05-04 18:01 42.60007 -121.63057 40873 ft 485 kts 167°
2026-05-04 18:02 42.50051 -121.61017 40867 ft 484 kts 168°
2026-05-04 18:02 42.43391 -121.59657 40868 ft 484 kts 168°
2026-05-04 18:03 42.36725 -121.58299 40869 ft 484 kts 168°
2026-05-04 18:03 42.30066 -121.56945 40866 ft 484 kts 168°
2026-05-04 18:04 42.23455 -121.55605 40870 ft 484 kts 168°
2026-05-04 18:05 42.13471 -121.53596 40942 ft 484 kts 168°
2026-05-04 18:05 42.06812 -121.52254 40931 ft 484 kts 168°
2026-05-04 18:06 41.96826 -121.50244 40912 ft 484 kts 168°
2026-05-04 18:06 41.90222 -121.48918 40904 ft 483 kts 168°
2026-05-04 18:07 41.83572 -121.47586 40895 ft 483 kts 168°
2026-05-04 18:07 41.76926 -121.46258 40913 ft 483 kts 169°
2026-05-04 18:08 41.70292 -121.44935 40917 ft 482 kts 169°
2026-05-04 18:08 41.63697 -121.43623 40925 ft 482 kts 169°
2026-05-04 18:09 41.50439 -121.40992 40938 ft 481 kts 169°
2026-05-04 18:10 41.43815 -121.39682 40953 ft 481 kts 169°
2026-05-04 18:10 41.37256 -121.38392 40954 ft 479 kts 169°
2026-05-04 18:11 41.30675 -121.37102 40965 ft 478 kts 169°
2026-05-04 18:11 41.24093 -121.35810 40968 ft 478 kts 169°
2026-05-04 18:12 41.17531 -121.34522 40961 ft 476 kts 169°
2026-05-04 18:12 41.11029 -121.33249 40972 ft 476 kts 169°
2026-05-04 18:13 41.04484 -121.31970 40979 ft 475 kts 169°
2026-05-04 18:14 40.94673 -121.30057 40962 ft 475 kts 169°
2026-05-04 18:14 40.88135 -121.28786 40969 ft 475 kts 170°
2026-05-04 18:15 40.75080 -121.26255 40962 ft 476 kts 169°
2026-05-04 18:16 40.68519 -121.24987 40969 ft 476 kts 170°
2026-05-04 18:16 40.61965 -121.23724 40957 ft 476 kts 170°
2026-05-04 18:17 40.52176 -121.21848 40970 ft 476 kts 170°
2026-05-04 18:18 40.42362 -121.19969 40964 ft 475 kts 171°
2026-05-04 18:18 40.35823 -121.18718 40951 ft 475 kts 170°
2026-05-04 18:19 40.26014 -121.16846 40961 ft 475 kts 170°
2026-05-04 18:19 40.19519 -121.15609 40961 ft 475 kts 171°
2026-05-04 18:20 40.12986 -121.14367 40971 ft 473 kts 171°
2026-05-04 18:20 40.06483 -121.13134 40972 ft 472 kts 171°
2026-05-04 18:21 39.99981 -121.11904 40988 ft 472 kts 171°
2026-05-04 18:21 39.93488 -121.10676 40994 ft 470 kts 171°
2026-05-04 18:22 39.87071 -121.09466 40997 ft 469 kts 171°
2026-05-04 18:22 39.80615 -121.08251 41009 ft 469 kts 172°
2026-05-04 18:23 39.74159 -121.07040 40985 ft 468 kts 172°
2026-05-04 18:23 39.67716 -121.05838 40994 ft 468 kts 172°
2026-05-04 18:24 39.61312 -121.04642 41002 ft 468 kts 172°
2026-05-04 18:24 39.54828 -121.03431 41004 ft 467 kts 172°
2026-05-04 18:25 39.48396 -121.02231 41008 ft 467 kts 172°
2026-05-04 18:25 39.41956 -121.01033 41011 ft 467 kts 172°
2026-05-04 18:26 39.35561 -120.99845 41039 ft 467 kts 172°
2026-05-04 18:26 39.29122 -120.98651 41047 ft 468 kts 172°
2026-05-04 18:27 39.22681 -120.97459 41046 ft 467 kts 172°
2026-05-04 18:27 39.16251 -120.96271 41047 ft 467 kts 172°
2026-05-04 18:28 39.09856 -120.95091 41036 ft 467 kts 173°
2026-05-04 18:28 39.03425 -120.93908 41053 ft 466 kts 173°
2026-05-04 18:29 38.97009 -120.92729 41040 ft 466 kts 173°
2026-05-04 18:29 38.90589 -120.91556 41052 ft 466 kts 173°
2026-05-04 18:30 38.81011 -120.89810 41060 ft 465 kts 173°
2026-05-04 18:31 38.74608 -120.88642 41083 ft 465 kts 173°
2026-05-04 18:31 38.68200 -120.87474 41076 ft 465 kts 173°
2026-05-04 18:32 38.61800 -120.86310 41045 ft 464 kts 173°
2026-05-04 18:32 38.55409 -120.85150 41052 ft 464 kts 173°
2026-05-04 18:33 38.49018 -120.83992 41061 ft 464 kts 173°
2026-05-04 18:33 38.42667 -120.82843 41068 ft 464 kts 173°
2026-05-04 18:34 38.36272 -120.81688 41067 ft 464 kts 173°
2026-05-04 18:34 38.29880 -120.80536 41064 ft 464 kts 174°
2026-05-04 18:35 38.23501 -120.79388 41056 ft 462 kts 174°
2026-05-04 18:35 38.17175 -120.78252 41073 ft 462 kts 174°
2026-05-04 18:36 38.10807 -120.77111 41064 ft 462 kts 174°
2026-05-04 18:36 38.04452 -120.75978 41065 ft 460 kts 174°
2026-05-04 18:37 37.98103 -120.74848 41062 ft 461 kts 174°
2026-05-04 18:37 37.91800 -120.73724 41042 ft 460 kts 174°
2026-05-04 18:38 37.85478 -120.72598 41046 ft 458 kts 174°
2026-05-04 18:38 37.79168 -120.71477 41045 ft 458 kts 174°
2026-05-04 18:39 37.72854 -120.70357 41033 ft 458 kts 175°
2026-05-04 18:39 37.66601 -120.69248 41044 ft 455 kts 175°
2026-05-04 18:40 37.60347 -120.68142 41042 ft 454 kts 175°
2026-05-04 18:40 37.54088 -120.67038 41042 ft 454 kts 175°
2026-05-04 18:41 37.47832 -120.65935 41039 ft 453 kts 175°
2026-05-04 18:41 37.41644 -120.64846 41039 ft 452 kts 175°
2026-05-04 18:42 37.35417 -120.63754 41040 ft 452 kts 175°
2026-05-04 18:42 37.29202 -120.62634 41051 ft 451 kts 174°
2026-05-04 18:43 37.23072 -120.60892 41041 ft 452 kts 169°
2026-05-04 18:43 37.16988 -120.58842 41042 ft 453 kts 169°
2026-05-04 18:44 37.10904 -120.56799 41040 ft 452 kts 169°
2026-05-04 18:44 37.04834 -120.54800 41050 ft 451 kts 169°
2026-05-04 18:45 36.98680 -120.52792 41050 ft 451 kts 169°
2026-05-04 18:45 36.92609 -120.50816 41049 ft 450 kts 170°
2026-05-04 18:46 36.86558 -120.48848 41055 ft 449 kts 170°
2026-05-04 18:46 36.80515 -120.46886 41055 ft 449 kts 170°
2026-05-04 18:47 36.74516 -120.44942 41035 ft 448 kts 170°
2026-05-04 18:47 36.68486 -120.42989 41047 ft 447 kts 170°
2026-05-04 18:48 36.62464 -120.41044 41048 ft 447 kts 170°
2026-05-04 18:48 36.56441 -120.39102 41052 ft 447 kts 171°
2026-05-04 18:49 36.50471 -120.37178 41056 ft 446 kts 171°
2026-05-04 18:49 36.44466 -120.35254 41056 ft 446 kts 171°
2026-05-04 18:50 36.38460 -120.33334 41055 ft 446 kts 171°
2026-05-04 18:50 36.32454 -120.31411 41062 ft 445 kts 171°
2026-05-04 18:51 36.26451 -120.29490 41057 ft 445 kts 171°
2026-05-04 18:51 36.20497 -120.27588 41065 ft 445 kts 171°
2026-05-04 18:52 36.14495 -120.25673 41060 ft 445 kts 171°
2026-05-04 18:52 36.08505 -120.23765 41060 ft 445 kts 171°
2026-05-04 18:53 36.02513 -120.21860 41053 ft 445 kts 171°
2026-05-04 18:53 35.96520 -120.19957 41048 ft 445 kts 171°
2026-05-04 18:54 35.90527 -120.18057 41059 ft 445 kts 171°
2026-05-04 18:54 35.84577 -120.16174 41060 ft 444 kts 171°
2026-05-04 18:55 35.78584 -120.14281 41061 ft 444 kts 171°
2026-05-04 18:55 35.69605 -120.11449 41062 ft 445 kts 171°
2026-05-04 18:56 35.63739 -120.08897 41060 ft 455 kts 158°
2026-05-04 18:56 35.58270 -120.04830 40786 ft 463 kts 153°
2026-05-04 18:57 35.55572 -120.02663 40521 ft 464 kts 153°
2026-05-04 18:57 35.52867 -120.00507 40139 ft 463 kts 154°
2026-05-04 18:57 35.50163 -119.98387 39674 ft 462 kts 154°
2026-05-04 18:57 35.47482 -119.96318 39212 ft 460 kts 155°
2026-05-04 18:58 35.44770 -119.94246 38762 ft 459 kts 155°
2026-05-04 18:58 35.42053 -119.92185 38223 ft 458 kts 155°
2026-05-04 18:58 35.39339 -119.90131 37722 ft 459 kts 156°
2026-05-04 18:58 35.36617 -119.88076 37275 ft 461 kts 156°
2026-05-04 18:59 35.33884 -119.86015 36804 ft 463 kts 156°
2026-05-04 18:59 35.31138 -119.83943 36342 ft 464 kts 156°
2026-05-04 18:59 35.28393 -119.81855 35869 ft 466 kts 155°
2026-05-04 18:59 35.25704 -119.79602 35397 ft 471 kts 153°
2026-05-04 19:00 35.23063 -119.77198 34893 ft 474 kts 152°
2026-05-04 19:00 35.20484 -119.74759 34363 ft 476 kts 152°
2026-05-04 19:00 35.17870 -119.72262 33835 ft 477 kts 152°
2026-05-04 19:00 35.15255 -119.69768 33270 ft 477 kts 152°
2026-05-04 19:01 35.12633 -119.67282 32736 ft 477 kts 152°
2026-05-04 19:01 35.10010 -119.64811 32214 ft 476 kts 153°
2026-05-04 19:01 35.07379 -119.62343 31696 ft 476 kts 153°
2026-05-04 19:01 35.04753 -119.59886 31183 ft 476 kts 153°
2026-05-04 19:02 35.03013 -119.58260 30817 ft 475 kts 154°
2026-05-04 19:02 35.00400 -119.55819 30292 ft 472 kts 154°
2026-05-04 19:02 34.97797 -119.53389 29668 ft 470 kts 154°
2026-05-04 19:02 34.95212 -119.50977 29084 ft 465 kts 154°
2026-05-04 19:03 34.92651 -119.48593 28523 ft 462 kts 154°
2026-05-04 19:03 34.90089 -119.46252 27982 ft 458 kts 154°
2026-05-04 19:03 34.87532 -119.43956 27424 ft 455 kts 154°
2026-05-04 19:03 34.84987 -119.41684 26907 ft 452 kts 154°
2026-05-04 19:04 34.82462 -119.39431 26552 ft 448 kts 154°
2026-05-04 19:04 34.79986 -119.37224 26396 ft 443 kts 154°
2026-05-04 19:04 34.77586 -119.35061 26230 ft 419 kts 155°
2026-05-04 19:04 34.75265 -119.32979 25859 ft 410 kts 155°
2026-05-04 19:05 34.72970 -119.30960 25308 ft 405 kts 155°
2026-05-04 19:05 34.70692 -119.28978 24753 ft 401 kts 155°
2026-05-04 19:05 34.68435 -119.27017 24320 ft 396 kts 155°
2026-05-04 19:05 34.66192 -119.25071 24065 ft 396 kts 155°
2026-05-04 19:06 34.63937 -119.23126 24006 ft 398 kts 155°
2026-05-04 19:06 34.61674 -119.21181 23821 ft 399 kts 155°
2026-05-04 19:06 34.59409 -119.19234 23398 ft 401 kts 155°
2026-05-04 19:06 34.57143 -119.17281 22750 ft 397 kts 154°
2026-05-04 19:07 34.54916 -119.15329 22160 ft 394 kts 153°
2026-05-04 19:07 34.52737 -119.13404 21579 ft 391 kts 152°
2026-05-04 19:07 34.50550 -119.11465 21029 ft 387 kts 152°
2026-05-04 19:07 34.48386 -119.09545 20441 ft 384 kts 152°
2026-05-04 19:08 34.46233 -119.07638 19895 ft 381 kts 151°
2026-05-04 19:08 34.44097 -119.05756 19341 ft 378 kts 150°
2026-05-04 19:08 34.41971 -119.03905 18813 ft 375 kts 150°
2026-05-04 19:08 34.39857 -119.02074 18254 ft 372 kts 149°
2026-05-04 19:09 34.37758 -119.00257 17642 ft 369 kts 149°
2026-05-04 19:09 34.35680 -118.98459 17078 ft 366 kts 149°
2026-05-04 19:09 34.33630 -118.96654 16550 ft 364 kts 148°
2026-05-04 19:09 34.31512 -118.94748 15984 ft 361 kts 148°
2026-05-04 19:10 34.29603 -118.93015 15503 ft 358 kts 148°
2026-05-04 19:10 34.27618 -118.91212 14994 ft 356 kts 147°
2026-05-04 19:10 34.25644 -118.89415 14478 ft 354 kts 147°
2026-05-04 19:10 34.23692 -118.87621 13969 ft 352 kts 146°
2026-05-04 19:11 34.21753 -118.85832 13511 ft 348 kts 146°
2026-05-04 19:11 34.19838 -118.84063 13282 ft 344 kts 146°
2026-05-04 19:11 34.17994 -118.82354 13126 ft 323 kts 146°
2026-05-04 19:11 34.16271 -118.80728 13001 ft 313 kts 144°
2026-05-04 19:12 34.14650 -118.79047 12945 ft 311 kts 142°
2026-05-04 19:12 34.11436 -118.75542 12801 ft 311 kts 141°
2026-05-04 19:12 34.09838 -118.73786 12735 ft 311 kts 141°
2026-05-04 19:13 34.08245 -118.72034 12533 ft 310 kts 142°
2026-05-04 19:13 34.06663 -118.70295 12018 ft 304 kts 141°
2026-05-04 19:13 34.05119 -118.68599 11537 ft 297 kts 142°
2026-05-04 19:13 34.03684 -118.66802 11135 ft 292 kts 129°
2026-05-04 19:14 34.02820 -118.64555 10666 ft 300 kts 106°
2026-05-04 19:14 34.02454 -118.62091 10185 ft 298 kts 98°
2026-05-04 19:14 34.02239 -118.59678 9681 ft 291 kts 96°
2026-05-04 19:14 34.02044 -118.57242 9228 ft 291 kts 96°
2026-05-04 19:15 34.01842 -118.54776 8836 ft 289 kts 96°
2026-05-04 19:15 34.01640 -118.52411 8384 ft 288 kts 96°
2026-05-04 19:15 34.01431 -118.50041 8144 ft 278 kts 97°
2026-05-04 19:15 34.01228 -118.47779 8020 ft 265 kts 97°
2026-05-04 19:16 34.01174 -118.45615 7771 ft 255 kts 84°
2026-05-04 19:16 34.01435 -118.43502 7373 ft 256 kts 78°
2026-05-04 19:16 34.01778 -118.41404 6935 ft 256 kts 77°
2026-05-04 19:16 34.02142 -118.39266 6321 ft 264 kts 77°
2026-05-04 19:17 34.02513 -118.37095 5702 ft 261 kts 78°
2026-05-04 19:17 34.02855 -118.34579 4945 ft 243 kts 83°
2026-05-04 19:17 34.03034 -118.32922 4404 ft 236 kts 84°
2026-05-04 19:17 34.03229 -118.31030 3858 ft 230 kts 84°
2026-05-04 19:18 34.03433 -118.29128 3471 ft 231 kts 84°
2026-05-04 19:18 34.03646 -118.27217 3081 ft 229 kts 83°
2026-05-04 19:18 34.03857 -118.25331 2725 ft 225 kts 82°
2026-05-04 19:18 34.04069 -118.23445 2622 ft 224 kts 82°
2026-05-04 19:19 34.04276 -118.21601 2618 ft 224 kts 82°
2026-05-04 19:19 34.04492 -118.19731 2617 ft 225 kts 83°
2026-05-04 19:19 34.04720 -118.17851 2595 ft 229 kts 82°
2026-05-04 19:19 34.04966 -118.15945 2595 ft 232 kts 82°
2026-05-04 19:20 34.05215 -118.14042 2644 ft 232 kts 82°
2026-05-04 19:20 34.05466 -118.12109 2665 ft 231 kts 82°
2026-05-04 19:20 34.05522 -118.10179 2636 ft 230 kts 104°
2026-05-04 19:20 34.04825 -118.08505 2661 ft 222 kts 136°
2026-05-04 19:21 34.03545 -118.07569 2660 ft 214 kts 171°
2026-05-04 19:21 34.02105 -118.07640 2665 ft 207 kts 203°
2026-05-04 19:21 34.00956 -118.08644 2684 ft 205 kts 229°
2026-05-04 19:21 34.00036 -118.09972 2669 ft 205 kts 231°
2026-05-04 19:22 33.99126 -118.11301 2654 ft 205 kts 232°
2026-05-04 19:22 33.98270 -118.12662 2624 ft 205 kts 244°
2026-05-04 19:22 33.97928 -118.14267 2675 ft 192 kts 260°
2026-05-04 19:22 33.97732 -118.15811 2642 ft 179 kts 261°
2026-05-04 19:23 33.97573 -118.17253 2665 ft 176 kts 261°
2026-05-04 19:23 33.97420 -118.18684 2667 ft 174 kts 262°
2026-05-04 19:23 33.97267 -118.20135 2671 ft 174 kts 262°
2026-05-04 19:23 33.97118 -118.21561 2667 ft 170 kts 262°
2026-05-04 19:24 33.96970 -118.22988 2672 ft 173 kts 261°
2026-05-04 19:24 33.96822 -118.24421 2677 ft 171 kts 261°
2026-05-04 19:24 33.96686 -118.25751 2449 ft 146 kts 262°
2026-05-04 19:24 33.96570 -118.26901 2248 ft 134 kts 260°
2026-05-04 19:25 33.96456 -118.28001 2108 ft 132 kts 261°
2026-05-04 19:25 33.96343 -118.29103 1938 ft 133 kts 261°
2026-05-04 19:25 33.96229 -118.30205 1759 ft 132 kts 261°
2026-05-04 19:25 33.96118 -118.31291 1579 ft 130 kts 261°
2026-05-04 19:26 33.96006 -118.32380 1423 ft 133 kts 262°
2026-05-04 19:26 33.95892 -118.33500 1239 ft 135 kts 261°
2026-05-04 19:26 33.95780 -118.34597 1047 ft 134 kts 262°
2026-05-04 19:26 33.95667 -118.35726 886 ft 136 kts 261°
2026-05-04 19:27 33.95559 -118.36845 706 ft 133 kts 260°
2026-05-04 19:27 33.95443 -118.37923 557 ft 128 kts 261°
2026-05-04 19:27 33.95335 -118.39001 335 ft 134 kts 261°
2026-05-04 19:27 33.95222 -118.40090 165 ft 128 kts 261°
2026-05-04 19:28 33.95124 -118.41047 100 ft 92 kts 263°
2026-05-04 19:28 33.95069 -118.41576 101 ft 40 kts 262°
2026-05-04 19:28 33.95039 -118.41876 103 ft 33 kts 263°
2026-05-04 19:28 33.94985 -118.42119 102 ft 28 kts 242°
2026-05-04 19:29 33.94909 -118.42229 104 ft 9 kts 224°
2026-05-04 19:29 33.94892 -118.42247 102 ft 0 kts 218°
2026-05-04 19:32 33.94891 -118.42247 102 ft 1 kts 218°
2026-05-04 19:33 33.94818 -118.42281 105 ft 22 kts 192°
2026-05-04 19:33 33.94701 -118.42249 104 ft 14 kts 126°
2026-05-04 19:33 33.94693 -118.42133 101 ft 17 kts 84°
2026-05-04 19:33 33.94709 -118.41970 101 ft 21 kts 83°
2026-05-04 19:34 33.94729 -118.41776 103 ft 26 kts 83°
2026-05-04 19:34 33.94750 -118.41560 102 ft 26 kts 83°
2026-05-04 19:34 33.94778 -118.41367 102 ft 21 kts 78°
2026-05-04 19:34 33.94786 -118.41254 101 ft 8 kts 78°
2026-05-04 19:35 33.94799 -118.41184 102 ft 9 kts 79°
2026-05-04 19:35 33.94809 -118.41109 103 ft 10 kts 81°
2026-05-04 19:35 33.94819 -118.41022 104 ft 11 kts 83°
2026-05-04 19:35 33.94829 -118.40924 103 ft 12 kts 83°
2026-05-04 19:36 33.94840 -118.40818 102 ft 13 kts 82°
2026-05-04 19:36 33.94852 -118.40707 102 ft 14 kts 82°
2026-05-04 19:36 33.94855 -118.40624 102 ft 4 kts 108°
2026-05-04 19:36 33.94840 -118.40606 101 ft 5 kts 143°
2026-05-04 19:37 33.94796 -118.40585 104 ft 4 kts 152°
2026-05-04 19:37 33.94771 -118.40557 101 ft 6 kts 134°
2026-05-04 19:37 33.94744 -118.40522 100 ft 4 kts 132°
2026-05-04 19:37 33.94727 -118.40500 100 ft 2 kts 132°
2026-05-04 19:38 33.94722 -118.40493 100 ft 1 kts 132°
2026-05-04 19:38 33.94721 -118.40491 100 ft 0 kts 132°